When you browse on this site, cookies collect data to enhance your experience and personalize the content and advertising you see.
Visit our Privacy Policy to learn more. By continuing to use the site, you agree to this use of cookies and data.
  • In Hungary
  • List of Countries
  • For 7 days
  • Water Temperature
  • Weather Map
  • News
  • Weather Widgets
  • user-avatar
    Login

    Hourly Weather Arsenovo

    Today, 23 January, Thursday

    Time Temperature Precipitation Wind Pressure Humidity
    00:00 -5°C° 0 mm 6 mps 735 mmHg 85%
    01:00 -5°C° 0 mm 6 mps 736 mmHg 86%
    02:00 -6°C° 0 mm 6 mps 736 mmHg 87%
    03:00 -6°C° 0 mm 5 mps 737 mmHg 88%
    04:00 -6°C° 0.1 mm 5 mps 737 mmHg 88%
    05:00 -6°C° 0.1 mm 5 mps 737 mmHg 88%
    06:00 -6°C° 0.1 mm 5 mps 737 mmHg 88%
    07:00 -6°C° 0.1 mm 6 mps 738 mmHg 87%
    08:00 -6°C° 0.1 mm 6 mps 739 mmHg 85%
    09:00 -6°C° 0.1 mm 6 mps 739 mmHg 83%
    10:00 -6°C° 0 mm 6 mps 740 mmHg 80%
    11:00 -7°C° 0 mm 7 mps 741 mmHg 76%
    12:00 -7°C° 0 mm 7 mps 741 mmHg 73%
    13:00 -8°C° 0 mm 7 mps 742 mmHg 71%
    14:00 -8°C° 0 mm 7 mps 742 mmHg 69%
    15:00 -9°C° 0 mm 7 mps 743 mmHg 67%
    16:00 -9°C° 0 mm 6 mps 743 mmHg 69%
    17:00 -9°C° 0 mm 6 mps 744 mmHg 72%
    18:00 -10°C° 0 mm 6 mps 744 mmHg 75%
    19:00 -10°C° 0 mm 5 mps 745 mmHg 75%
    20:00 -10°C° 0 mm 5 mps 745 mmHg 76%
    21:00 -9°C° 0 mm 4 mps 746 mmHg 76%
    22:00 -10°C° 0 mm 4 mps 746 mmHg 77%
    23:00 -10°C° 0 mm 4 mps 747 mmHg 79%

    Tomorrow, 24 January, Friday

    Time Temperature Precipitation Wind Pressure Humidity
    00:00 -9°C° 0 mm 3 mps 747 mmHg 80%
    01:00 -9°C° 0 mm 3 mps 748 mmHg 80%
    02:00 -10°C° 0 mm 3 mps 748 mmHg 81%
    03:00 -10°C° 0 mm 3 mps 749 mmHg 81%
    04:00 -10°C° 0 mm 3 mps 749 mmHg 83%
    05:00 -10°C° 0 mm 3 mps 748 mmHg 86%
    06:00 -10°C° 0 mm 3 mps 748 mmHg 88%
    07:00 -10°C° 0 mm 3 mps 748 mmHg 89%
    08:00 -9°C° 0 mm 3 mps 748 mmHg 90%
    09:00 -10°C° 0 mm 4 mps 748 mmHg 90%
    10:00 -10°C° 0 mm 5 mps 748 mmHg 87%
    11:00 -8°C° 0 mm 5 mps 747 mmHg 83%
    12:00 -8°C° 0 mm 6 mps 746 mmHg 79%
    13:00 -7°C° 0 mm 7 mps 745 mmHg 82%
    14:00 -7°C° 0 mm 7 mps 745 mmHg 84%
    15:00 -6°C° 0 mm 8 mps 744 mmHg 87%
    16:00 -6°C° 0.3 mm 7 mps 743 mmHg 90%
    17:00 -6°C° 0.3 mm 7 mps 742 mmHg 92%
    18:00 -6°C° 0.3 mm 7 mps 741 mmHg 95%
    19:00 -4°C° 0.4 mm 7 mps 741 mmHg 95%
    20:00 -3°C° 0.4 mm 7 mps 740 mmHg 96%
    21:00 -3°C° 0.4 mm 7 mps 740 mmHg 96%
    22:00 -2°C° 0.2 mm 7 mps 739 mmHg 96%
    23:00 -1°C° 0.2 mm 7 mps 739 mmHg 95%

    Day after tomorrow, 25 January, Saturday

    Time Temperature Precipitation Wind Pressure Humidity
    00:00 -1°C° 0.2 mm 7 mps 739 mmHg 95%
    01:00 -1°C° 0.1 mm 6 mps 739 mmHg 95%
    02:00 -1°C° 0.1 mm 6 mps 739 mmHg 95%
    03:00 -1°C° 0.1 mm 6 mps 739 mmHg 95%
    04:00 -1°C° 0.1 mm 6 mps 739 mmHg 95%
    05:00 0°C° 0.1 mm 5 mps 739 mmHg 94%
    06:00 -1°C° 0.1 mm 5 mps 739 mmHg 93%
    07:00 -1°C° 0.1 mm 5 mps 739 mmHg 93%
    08:00 -1°C° 0.1 mm 5 mps 739 mmHg 93%
    09:00 -1°C° 0.1 mm 5 mps 739 mmHg 93%
    10:00 -1°C° 0 mm 5 mps 739 mmHg 94%
    11:00 -1°C° 0 mm 5 mps 738 mmHg 94%
    12:00 -2°C° 0 mm 6 mps 738 mmHg 95%
    13:00 -2°C° 0.1 mm 6 mps 738 mmHg 92%
    14:00 -1°C° 0.1 mm 6 mps 737 mmHg 89%
    15:00 -1°C° 0.1 mm 7 mps 737 mmHg 87%
    16:00 -2°C° 0.1 mm 7 mps 737 mmHg 84%
    17:00 -2°C° 0.1 mm 7 mps 737 mmHg 82%
    18:00 -2°C° 0.1 mm 7 mps 737 mmHg 79%
    19:00 -4°C° 0.1 mm 8 mps 737 mmHg 82%
    20:00 -4°C° 0.1 mm 8 mps 737 mmHg 84%
    21:00 -4°C° 0.1 mm 8 mps 738 mmHg 87%
    22:00 -4°C° 0.1 mm 7 mps 738 mmHg 84%
    23:00 -4°C° 0.1 mm 7 mps 738 mmHg 81%

    26 January, Sunday

    Time Temperature Precipitation Wind Pressure Humidity
    00:00 -6°C° 0.1 mm 7 mps 739 mmHg 78%
    01:00 -6°C° 0 mm 7 mps 739 mmHg 78%
    02:00 -6°C° 0 mm 7 mps 740 mmHg 79%
    03:00 -6°C° 0 mm 7 mps 741 mmHg 79%
    04:00 -6°C° 0 mm 7 mps 741 mmHg 80%
    05:00 -6°C° 0 mm 7 mps 742 mmHg 81%
    06:00 -6°C° 0 mm 7 mps 743 mmHg 81%
    07:00 -6°C° 0 mm 7 mps 744 mmHg 81%
    08:00 -6°C° 0 mm 7 mps 745 mmHg 81%
    09:00 -6°C° 0 mm 6 mps 745 mmHg 81%
    10:00 -6°C° 0 mm 7 mps 746 mmHg 79%
    11:00 -6°C° 0 mm 7 mps 747 mmHg 77%
    12:00 -6°C° 0 mm 7 mps 748 mmHg 75%
    13:00 -6°C° 0 mm 7 mps 748 mmHg 75%
    14:00 -5°C° 0 mm 6 mps 749 mmHg 75%
    15:00 -5°C° 0 mm 6 mps 749 mmHg 76%
    16:00 -5°C° 0 mm 6 mps 750 mmHg 78%
    17:00 -6°C° 0 mm 5 mps 750 mmHg 80%
    18:00 -6°C° 0 mm 5 mps 751 mmHg 82%
    19:00 -6°C° 0 mm 5 mps 752 mmHg 83%
    20:00 -5°C° 0 mm 4 mps 752 mmHg 83%
    21:00 -7°C° 0 mm 4 mps 753 mmHg 84%
    22:00 -7°C° 0 mm 4 mps 753 mmHg 85%
    23:00 -7°C° 0 mm 4 mps 754 mmHg 86%

    27 January, Monday

    Time Temperature Precipitation Wind Pressure Humidity
    00:00 -7°C° 0 mm 4 mps 754 mmHg 87%
    01:00 -6°C° 0 mm 3 mps 755 mmHg 88%
    02:00 -6°C° 0 mm 2 mps 755 mmHg 90%
    03:00 -6°C° 0 mm 2 mps 755 mmHg 91%
    04:00 -6°C° 0 mm 2 mps 755 mmHg 91%
    05:00 -6°C° 0 mm 2 mps 755 mmHg 90%
    06:00 -4°C° 0 mm 1 mps 755 mmHg 90%
    07:00 -5°C° 0 mm 2 mps 755 mmHg 89%
    08:00 -6°C° 0 mm 3 mps 755 mmHg 87%
    09:00 -7°C° 0 mm 4 mps 755 mmHg 86%
    10:00 -5°C° 0 mm 4 mps 755 mmHg 85%
    11:00 -5°C° 0 mm 5 mps 754 mmHg 84%
    12:00 -4°C° 0 mm 6 mps 754 mmHg 82%
    13:00 -4°C° 0 mm 5 mps 754 mmHg 84%
    14:00 -4°C° 0 mm 5 mps 753 mmHg 86%
    15:00 -2°C° 0 mm 5 mps 752 mmHg 88%
    16:00 -2°C° 0 mm 5 mps 752 mmHg 89%
    17:00 -2°C° 0 mm 5 mps 752 mmHg 90%
    18:00 -4°C° 0 mm 5 mps 752 mmHg 90%
    19:00 -4°C° 0 mm 5 mps 751 mmHg 91%
    20:00 -2°C° 0 mm 5 mps 751 mmHg 92%
    21:00 -2°C° 0 mm 5 mps 750 mmHg 92%
    22:00 -4°C° 0.2 mm 6 mps 750 mmHg 93%
    23:00 -4°C° 0.2 mm 6 mps 750 mmHg 95%

    28 January, Tuesday

    Time Temperature Precipitation Wind Pressure Humidity
    00:00 -4°C° 0.2 mm 6 mps 749 mmHg 96%
    01:00 -4°C° 0.3 mm 6 mps 748 mmHg 96%
    02:00 -4°C° 0.3 mm 6 mps 748 mmHg 96%
    03:00 -4°C° 0.3 mm 6 mps 747 mmHg 96%
    04:00 -3°C° 0.3 mm 6 mps 747 mmHg 96%
    05:00 -2°C° 0.3 mm 5 mps 746 mmHg 97%
    06:00 -2°C° 0.3 mm 5 mps 746 mmHg 97%
    07:00 -2°C° 0.2 mm 5 mps 746 mmHg 97%
    08:00 -2°C° 0.2 mm 5 mps 745 mmHg 97%
    09:00 -2°C° 0.2 mm 5 mps 745 mmHg 97%
    10:00 -2°C° 0.2 mm 5 mps 745 mmHg 97%
    11:00 -2°C° 0.2 mm 5 mps 745 mmHg 97%
    12:00 -2°C° 0.2 mm 5 mps 745 mmHg 98%
    13:00 -1°C° 0.4 mm 5 mps 745 mmHg 97%
    14:00 -1°C° 0.4 mm 5 mps 745 mmHg 97%
    15:00 -1°C° 0.4 mm 5 mps 745 mmHg 97%
    16:00 -1°C° 0.1 mm 5 mps 746 mmHg 95%
    17:00 -1°C° 0.1 mm 5 mps 747 mmHg 93%
    18:00 -1°C° 0.1 mm 5 mps 748 mmHg 90%
    19:00 -2°C° 0 mm 5 mps 748 mmHg 89%
    20:00 -2°C° 0 mm 4 mps 749 mmHg 87%
    21:00 -2°C° 0 mm 4 mps 749 mmHg 85%
    22:00 -2°C° 0 mm 3 mps 750 mmHg 87%
    23:00 -4°C° 0 mm 3 mps 750 mmHg 89%
    Show more